GW2511 Weather Reports


time (UTC)temp
F
wind
direction
speed
knots
gust
knots
rain 1hr
in
rain 24hr
in
rain mn
in
humidity
%
barometer
mb
20260507160056 55 58 0.0 2.6 0.00 0.00 0.00 59 1013.4
20260507154553 53 112 0.0 2.6 0.00 0.00 0.00 67 1013.4
20260507153049 51 117 0.0 2.6 0.00 0.00 0.00 78 1013.5
20260507151546 49 63 0.0 1.7 0.00 0.00 0.00 84 1013.7
20260507150040 45 91 0.0 0.9 0.00 0.00 0.00 91 1013.9
20260507144607 42 133 0.0 0.0 0.00 0.00 0.00 92 1013.9
20260507143038 40 133 0.0 0.0 0.00 0.00 0.00 92 1013.9
20260507141543 37 133 0.0 0.9 0.00 0.00 0.00 92 1013.9
20260507140037 35 133 0.0 0.0 0.00 0.00 0.00 92 1013.8
20260507134540 35 133 0.0 0.0 0.00 0.00 0.00 92 1013.8
20260507133036 34 133 0.0 0.0 0.00 0.00 0.00 92 1013.6
20260507131535 34 133 0.0 0.0 0.00 0.00 0.00 92 1013.6
20260507130031 34 133 0.0 0.0 0.00 0.00 0.00 92 1013.5
20260507124531 35 133 0.0 0.0 0.00 0.00 0.00 92 1013.5
20260507123029 35 132 0.0 0.0 0.00 0.00 0.00 92 1013.5
20260507121526 35 132 0.0 0.0 0.00 0.00 0.00 92 1013.4
20260507120024 36 133 0.0 0.9 0.00 0.00 0.00 92 1013.4
20260507114521 36 102 0.0 0.0 0.00 0.00 0.00 92 1013.4
20260507113020 36 102 0.0 0.0 0.00 0.00 0.00 92 1013.4
20260507111528 36 102 0.0 0.0 0.00 0.00 0.00 92 1013.4
20260507110015 37 102 0.0 0.0 0.00 0.00 0.00 92 1013.4
20260507104513 38 102 0.0 0.0 0.00 0.00 0.00 92 1013.3
20260507103010 38 102 0.0 0.0 0.00 0.00 0.00 92 1013.3
20260507101508 38 102 0.0 0.0 0.00 0.00 0.00 92 1013.3
20260507100004 39 102 0.0 0.0 0.00 0.00 0.00 92 1013.3
20260507094503 39 102 0.0 0.0 0.00 0.00 0.00 91 1013.2
20260507093101 40 102 0.0 0.0 0.00 0.00 0.00 91 1013.0
20260507091600 40 102 0.0 0.0 0.00 0.00 0.00 91 1012.9
20260507090053 41 102 0.0 0.0 0.00 0.00 0.00 91 1012.8
20260507084551 42 102 0.0 0.0 0.00 0.00 0.00 91 1012.7
20260507083050 42 102 0.0 0.0 0.00 0.00 0.00 91 1012.7
20260507081547 42 102 0.0 0.0 0.00 0.00 0.00 91 1012.8
20260507080046 42 102 0.0 0.9 0.00 0.00 0.00 91 1012.7
20260507074544 42 333 0.0 0.0 0.00 0.00 0.00 91 1012.7
20260507073043 43 333 0.0 0.0 0.00 0.00 0.00 91 1012.8
20260507071540 43 333 0.0 0.0 0.00 0.00 0.00 91 1012.7
20260507070037 44 333 0.0 0.0 0.00 0.00 0.00 90 1012.6
20260507064537 44 333 0.0 0.0 0.00 0.00 0.00 90 1012.6
20260507063045 45 333 0.0 0.0 0.00 0.00 0.00 89 1012.6
20260507061536 46 333 0.0 0.0 0.00 0.00 0.00 89 1012.6
20260507060050 47 333 0.0 0.0 0.00 0.00 0.00 88 1012.7
20260507054545 48 333 0.0 0.0 0.00 0.00 0.00 87 1012.7
20260507053037 49 333 0.0 0.0 0.00 0.00 0.00 86 1012.7
20260507051534 49 333 0.0 0.0 0.00 0.00 0.00 86 1012.7
20260507050037 50 333 0.0 0.0 0.00 0.00 0.00 84 1012.7
20260507044547 51 333 0.0 0.0 0.00 0.00 0.00 83 1013.0
20260507043032 51 333 0.0 0.0 0.00 0.00 0.00 82 1012.9
20260507041532 52 333 0.0 0.0 0.00 0.00 0.00 81 1012.9
20260507040034 53 334 0.0 0.0 0.00 0.00 0.00 79 1012.7
20260507034535 54 333 0.0 0.0 0.00 0.00 0.00 77 1012.5
20260507033033 55 333 0.0 0.0 0.00 0.00 0.00 76 1012.3
20260507031530 56 333 0.0 0.0 0.00 0.00 0.00 74 1012.2
20260507030029 58 333 0.0 0.0 0.00 0.00 0.00 71 1012.0
20260507024529 60 333 0.0 0.0 0.00 0.00 0.00 66 1011.9
20260507023128 61 326 0.0 0.9 0.00 0.00 0.00 63 1011.8
20260507021530 62 43 0.0 0.9 0.00 0.00 0.00 60 1011.7
20260507020039 64 60 0.0 2.6 0.00 0.00 0.00 54 1011.5
20260507014526 65 77 0.0 4.3 0.00 0.00 0.00 52 1011.4
20260507013026 66 3 0.0 1.7 0.00 0.00 0.00 49 1011.3
20260507011526 66 290 0.0 1.7 0.00 0.00 0.00 49 1011.4
20260507010028 67 261 0.0 6.1 0.00 0.00 0.00 42 1011.2
20260507004529 68 162 0.9 7.0 0.00 0.00 0.00 40 1011.2
20260507003027 69 74 0.0 5.2 0.00 0.00 0.00 38 1011.1
20260507001529 70 117 3.5 4.3 0.00 0.00 0.00 33 1011.1
20260507000020 71 72 5.2 9.6 0.00 0.00 0.00 33 1011.3
20260506234522 71 341 0.9 7.8 0.00 0.00 0.00 32 1011.1
20260506233020 71 186 0.9 7.0 0.00 0.00 0.00 32 1011.3
20260506231518 72 72 1.7 6.1 0.00 0.00 0.00 29 1011.4
20260506230016 72 101 0.0 4.3 0.00 0.00 0.00 31 1011.5
20260506224515 70 319 0.0 6.1 0.00 0.00 0.00 36 1011.6
20260506223014 70 271 0.0 6.1 0.00 0.00 0.00 36 1011.8
20260506221513 70 91 1.7 7.8 0.00 0.00 0.00 35 1012.0
20260506220011 73 333 0.9 7.8 0.00 0.00 0.00 32 1011.9
20260506214509 73 52 0.9 4.3 0.00 0.00 0.00 32 1012.2
20260506213011 72 332 2.6 8.7 0.00 0.00 0.00 32 1012.6
20260506211504 70 87 3.5 11.3 0.00 0.00 0.00 34 1012.8
20260506210004 71 259 2.6 9.6 0.00 0.00 0.00 29 1012.7
20260506204502 70 77 1.7 7.8 0.00 0.00 0.00 31 1012.9
20260506203100 70 282 2.6 9.6 0.00 0.00 0.00 31 1012.8
20260506201600 71 345 0.9 5.2 0.00 0.00 0.00 31 1013.0
20260506200056 70 96 3.5 10.4 0.00 0.00 0.00 31 1013.2
20260506194604 70 225 3.5 10.4 0.00 0.00 0.00 33 1013.0
20260506193057 68 334 0.9 2.6 0.00 0.00 0.00 37 1013.5
20260506191552 68 114 0.0 6.1 0.00 0.00 0.00 38 1013.8
20260506190049 69 113 1.7 5.2 0.00 0.00 0.00 36 1013.9
20260506184548 69 51 2.6 5.2 0.00 0.00 0.00 37 1013.9
20260506183046 69 57 2.6 6.1 0.00 0.00 0.00 36 1014.0
20260506181547 69 245 0.9 4.3 0.00 0.00 0.00 39 1014.0
20260506180047 67 300 1.7 7.8 0.00 0.00 0.00 39 1014.0
20260506174536 66 326 1.7 5.2 0.00 0.00 0.00 42 1014.0
20260506173032 65 347 0.9 5.2 0.00 0.00 0.00 45 1014.2
20260506171543 63 85 0.0 4.3 0.00 0.00 0.00 45 1014.4
20260506170030 61 274 0.0 3.5 0.00 0.00 0.00 47 1014.6
20260506164521 59 75 0.0 1.7 0.00 0.00 0.00 54 1014.7
20260506163017 55 67 0.0 1.7 0.00 0.00 0.00 63 1015.0
20260506161512 52 107 0.0 0.9 0.00 0.00 0.00 62 1015.3